• Processing (Info)

  • MPEC 2019-A94 : 2019 AX3

    The following Minor Planet Electronic Circular may be linked-to from your own Web pages, but must not otherwise be redistributed electronically.

    A form allowing access to any MPEC is at the bottom of this page.


    Read MPEC 2019-A93 Read MPEC 2019-A95


    M.P.E.C. 2019-A94                                Issued 2019 Jan. 6, 22:55 UT
    
         The Minor Planet Electronic Circulars contain information on unusual
             minor planets and routine data on comets.  They are published
        on behalf of Division F of the International Astronomical Union by the
              Minor Planet Center, Smithsonian Astrophysical Observatory,
                              Cambridge, MA 02138, U.S.A.
    
                 Prepared using the Tamkin Foundation Computer Network
    
                                  MPC@CFA.HARVARD.EDU
                URL https://www.minorplanetcenter.net/    ISSN 1523-6714
    
                                       2019 AX3
    
    Observations:
         K19A03X* C2019 01 04.53262 08 13 20.018+05 10 27.68         20.1 wUEA094F51
         K19A03X  C2019 01 04.54662 08 13 26.900+05 07 11.58         20.5 wUEA094F51
         K19A03X  C2019 01 04.56058 08 13 33.796+05 03 57.17         20.6 wUEA094F51
         K19A03X ^C2019 01 05.37805708 22 30.817+01 54 48.49         20.47GVEA094568
         K19A03X ^C2019 01 05.37906208 22 31.327+01 54 34.65         20.84GVEA094568
         K19A03X ^C2019 01 05.38006708 22 31.842+01 54 20.75         20.43GVEA094568
         K19A03X ^C2019 01 05.38107008 22 32.350+01 54 06.90         20.62GVEA094568
         K19A03X KC2019 01 06.34389008 32 06.60 -01 48 27.6          20.8 VuEA094H21
         K19A03X KC2019 01 06.34873208 32 08.99 -01 49 33.4          20.4 VuEA094H21
         K19A03X KC2019 01 06.35578108 32 12.48 -01 51 09.5          20.6 VuEA094H21
    
    Observer details:
    568 Mauna Kea.  Observers R. Wainscoat, C. Wipper, A. Petric.  Measurers
        R. Weryk, R. Wainscoat.  3.6-m Canada-France-Hawaii Telescope + CCD.
    F51 Pan-STARRS 1, Haleakala.  Observers J. Bulger, T. Lowe, A. Schultz,
        M. Willman.  Measurers K. Chambers, S. Chastel, L. Denneau, J. Fairlamb,
        H. Flewelling, M. Huber, C.-C. Lin, E. Magnier, Y. Ramanjooloo,
        R. Wainscoat, R. Weryk.  1.8-m Ritchey-Chretien + CCD.
    H21 Astronomical Research Observatory, Westfield.  Observer R. Holmes.
        Measurers S. Foglia, L. Buzzi, T. Linder, R. Holmes.  0.61-m f/4.5
        astrograph + CCD.
    
    Orbital elements:
    2019 AX3                                                 Earth MOID = 0.0223 AU
    Epoch 2019 Apr. 27.0 TT = JDT 2458600.5                 MPC
    M  71.36108              (2000.0)            P               Q
    n   0.71383607     Peri.  198.78992     -0.46126002     -0.88485075
    a   1.2399487      Node   278.72360     +0.82229334     -0.39862940
    e   0.1931395      Incl.    3.79430     +0.33327596     -0.24110943
    P   1.38           H   27.5           G   0.15           U   6
    Residuals in seconds of arc
    190104 F51  0.1-  0.3+    190105 568  0.0   0.0     190106 H21  0.0   0.1+
    190104 F51  0.1+  0.4-    190105 568  0.0   0.0     190106 H21  0.0   0.1-
    190104 F51  0.1-  0.2+    190105 568  0.0   0.0
    190105 568  0.0   0.0     190106 H21  0.1+  0.0
    
    Ephemeris:
    2019 AX3                 a,e,i = 1.24, 0.19, 4                   q = 1.0005
    Date    TT    R. A. (2000) Decl.     Delta      r     Elong.  Phase     V
    2018 12 07    04 44 08.0 +48 29 04   0.06618 1.0451   154.0    24.4    22.8
    ...
    2018 12 22    06 00 59.1 +40 46 03   0.03693 1.0190   162.7    16.7    21.3
    ...
    2018 12 30    07 14 54.4 +24 38 59   0.02639 1.0094   170.7     9.1    20.2
    ...
    2019 01 05    08 18 19.2 +03 24 15   0.02356 1.0044   153.1    26.2    20.6
    2019 01 06    08 28 39.7 -00 25 55   0.02366 1.0037   149.4    30.0    20.7
    2019 01 07    08 38 48.1 -04 11 37   0.02391 1.0031   145.6    33.6    20.8
    ...
    2019 01 13    09 33 32.4 -22 54 32   0.02824 1.0008   127.1    51.6    21.7
    ...
    2019 01 21    10 27 16.5 -36 23 26   0.03839 1.0008   114.9    63.1    22.7
    ...
    2019 02 05    11 20 44.1 -44 48 11   0.06050 1.0105   112.4    64.4    23.7
    
    A. U. Tomatic                (C) Copyright 2019 MPC           M.P.E.C. 2019-A94
    

    Read MPEC 2019-A93 Read MPEC 2019-A95


    MPEC number:

    Enter an MPEC number in one of the following forms:

    • 1997-B01 (the full form)
    • J97B01 (the packed version of the full form)
    • B01 (the abbreviated form)